Regional Weather Roundup
Issued by NWS

Home | Current Version | Previous Version | Text Only | Print | Product List | Glossary On
Versions: 1 2 3 4 5 6 7 8 9 10 11 12 13 14 15 16 17 18 19 20 21 22 23 24 25 26 27 28 29 30 31 32 33 34 35 36 37 38 39 40 41 42 43 44 45 46 47 48 49 50
000
ASUS43 KMKX 282321
RWRWI

WISCONSIN REGIONAL WEATHER ROUNDUP
NATIONAL WEATHER SERVICE MILWAUKEE/SULLIVAN WI
600 PM CDT SAT MAY 28 2016

NOTE: "FAIR" INDICATES FEW OR NO CLOUDS BELOW 12,000 FEET WITH NO
SIGNIFICANT WEATHER AND/OR OBSTRUCTIONS TO VISIBILITY.

WIZ001-002-006>008-014>016-023>028-290000-
NORTHWEST WISCONSIN

CITY           SKY/WX    TMP DP  RH WIND       PRES   REMARKS
SUPERIOR ARPT  LGT RAIN  52  52  99 NE5       29.81S
ASHLAND        RAIN      58  54  86 CALM      29.80R
HAYWARD        CLOUDY    69  61  75 VRB5      29.78S
SIREN          RAIN      63  61  93 N5        29.79R
CUMBERLAND     LGT RAIN  64  63  94 W7        29.78S
RICE LAKE      CLOUDY    68  62  80 CALM      29.77F
CHETEK         PTSUNNY   71  63  75 SE3       29.75F
LADYSMITH      MOSUNNY   74  61  64 S3        29.79S
EAU CLAIRE     CLOUDY    75  61  61 S8        29.74S
MENOMONIE      HVY RAIN  71  65  80 SW17G30   29.78R
NEW RICHMOND   CLOUDY    65  63  93 N8        29.76F
OSCEOLA        CLOUDY    64  64 100 N7        29.79F
$$

WIZ003>005-009-010-017-018-290000-
NORTH CENTRAL WISCONSIN

CITY           SKY/WX    TMP DP  RH WIND       PRES   REMARKS
MANITOWISH WTR NOT AVBL
ARBOR VITAE    CLOUDY    67  65  91 SW5       29.82R
WOODRUFF       CLOUDY    67  65  91 SW5       29.82R
RHINELANDER    MOSUNNY   74  63  68 W12G18    29.81S
EAGLE RIVER      N/A     70  63  80 W18       29.81R
LAND O LAKES   RAIN      66  65  94 SW10G18   29.81R
PHILLIPS       PTSUNNY   69  66  92 SW3       29.79S
TOMAHAWK       SUNNY     73  62  68 CALM      29.81S
MEDFORD        MOSUNNY   74  62  66 SW9       29.79S
MERRILL        LGT RAIN  70  66  85 SW6       29.81R
$$

WIZ029-030-035-036-043>047-290000-
CENTRAL WISCONSIN

CITY           SKY/WX    TMP DP  RH WIND       PRES   REMARKS
WAUSAU         SUNNY     77  59  53 S13G20    29.78S
MOSINEE        PTSUNNY   75  61  60 S10       29.80
MARSHFIELD     MOSUNNY   76  60  57 S13       29.79R
STEVENS POINT  MOSUNNY   77  59  53 SW10G20   29.80S
WAUPACA        SUNNY     82  63  52 S10       29.79S HX  83
WAUTOMA        MOSUNNY   80  62  54 S9G16     29.80R HX  81
WISC RAPIDS    CLOUDY    77  59  53 SW6       29.80S
CAMP DOUGLAS   DRIZZLE   75  73  94 S7        29.79R
$$

WIZ011>013-019>022-031-037>040-048>050-290000-
NORTHEAST WISCONSIN

CITY           SKY/WX    TMP DP  RH WIND       PRES   REMARKS
ANTIGO         SUNNY     74  59  59 SW14G23   29.82S
SHAWANO        MOSUNNY   80  63  55 S7        29.80S HX  82
OCONTO         PTSUNNY   76  69  76 S10G16    29.80R
STURGEON BAY   NOT AVBL
GREEN BAY      MOSUNNY   81  64  56 S14       29.80S HX  82
MANITOWOC      SUNNY     69  59  70 S25G37    29.85S
APPLETON       PTSUNNY   81  59  47 S20       29.79F HX  81
CLINTONVILLE   MOSUNNY   79  61  53 SW9       29.79F HX  80
OSHKOSH        SUNNY     78  63  59 S15       29.81S HX  80
$$

WIZ032>034-041-042-053>061-290000-
SOUTHWEST WISCONSIN

CITY           SKY/WX    TMP DP  RH WIND       PRES   REMARKS
LA CROSSE      CLOUDY    70  65  84 S9        29.75F
SPARTA         CLOUDY    75  62  63 SW3       29.78S
VIROQUA        CLOUDY    67  64  87 CALM      29.80S
BOSCOBEL       CLOUDY    72  65  78 VRB5      29.78F
PRAIRIE DU CHI CLOUDY    68  62  80 CALM      29.79R
PLATTEVILLE    CLOUDY    69  65  89 SE7       29.81S
$$

WIZ056-057-062-063-064-067-068-290000-
SOUTH CENTRAL WISCONSIN

CITY           SKY/WX    TMP DP  RH WIND       PRES   REMARKS
REEDSBURG      LGT RAIN  75  64  67 S10       29.78S
BARABOO/DELLS  LGT RAIN  76  61  60 S10       29.78F
LONE ROCK      CLOUDY    69  63  81 S9        29.80R
MINERAL POINT  NOT AVBL
MADISON        TSTM      79  60  52 W13G21    29.81R HX  80
MIDDLETON      CLOUDY    71  61  69 W23G35    29.81R
WATERTOWN      SUNNY     80  64  59 S17G25    29.82S HX  82
MONROE         PTSUNNY   79  59  50 S21G31    29.80S HX  80
JANESVILLE     MOSUNNY   84  57  39 S17G24    29.81F HX  83
$$

WIZ051-052-058>065-066-070>072-290000-
SOUTHEAST WISCONSIN

CITY           SKY/WX    TMP DP  RH WIND       PRES   REMARKS
MILWAUKEE      MOSUNNY   76  63  64 SE12      29.85F
WAUKESHA       MOSUNNY   79  61  53 S15G25    29.86S HX  80
MILWAUKEE/TIMM SUNNY     81  57  44 S14       29.85F HX  81
RACINE         SUNNY     73  60  63 S13       29.88F
BURLINGTON     MOSUNNY   81  61  50 S12G22    29.85S HX  82
KENOSHA        MOSUNNY   81  64  56 S14G24    29.86F HX  82
FOND DU LAC    MOSUNNY   81  64  56 S12G18    29.82R HX  82
SHEBOYGAN      SUNNY     74  62  66 S20G32    29.85R
WEST BEND      MOSUNNY   79  61  53 S15G24    29.84S HX  80
JUNEAU         PTSUNNY   78  64  62 S14G20    29.84R HX  80
$$

LSZ147-162-290000-
LAKE SUPERIOR

STATION/POSITION TIME  TEMP    WIND        PRES    WAVE
                       AIR SEA DIR/SP/G            HT/PER
                 (UTC) (F)     (DEG/KT/KT) (MB)    (FT/S)
W MID LAKE BUOY  2250   42 38   20/  2/  6 1008.8R   1/ 4
DEVILS ISLAND    2300   45     250/  4/  5 1009.8R
SAXON HARBOR     2240   49     310/  3/  4 1009.1R
$$

LMZ867-665-643>646-290000-
LAKE MICHIGAN

STATION/POSITION TIME  TEMP    WIND        PRES    WAVE
                       AIR SEA DIR/SP/G            HT/PER
                 (UTC) (F)     (DEG/KT/KT) (MB)    (FT/S)
CHAMBERS ISLAND  2200   72     150/  7/ 13 1009.5F
N MID LAKE BUOY  2250   54 47  180/ 16/ 17 1010.3F   4/ 5
NORTHPORT PIER   2200   64     160/  9/ 14 1010.5S
SISTER BAY       2220   70     180/ 21/ 25   N/A
ALGOMA LAKESHORE 2217          220/ 13/ 16   N/A
KEWAUNEE LAKESHO 2200          180/ 13/ 15   N/A
SHEBOYGAN LAKESH 2300   58     180/ 19/ 20 1011.1R
PORT WASHINGTON  2200   63     190/  9/ 14 1011.5F
S MID LAKE BUOY  2250   57 50  160/ 12/ 12 1012.1F   1/ 4
KENOSHA   LAKESH 2300   61     170/ 11/ 14 1011.5S
$$

TC  - TEMPERATURE IN CELSIUS
VSB - VISIBILITY IN STATUTE MILES
WCI - WIND CHILL INDEX
HX  - HEAT INDEX





USA.gov is the U.S. government's official web portal to all federal, state and local government web resources and services.